Edinburgh Airport, United Kingdom

6:09 AM GMT on December 16, 2017 (GMT +0000)
Edinburgh Airport

Weather History for EGPH - December, 2014

Change the Weather History Date:

Wednesday, December 31, 2014

  Actual Average Record
Temperature  
Mean Temperature 45 °F -  
Max Temperature 51 °F 43 °F 53 °F (1997)
Min Temperature 39 °F 33 °F 19 °F (2001)
Degree Days  
Heating Degree Days 20    
Moisture  
Dew Point 42 °F    
Average Humidity 81    
Maximum Humidity 87    
Minimum Humidity 76    
Precipitation  
Precipitation 0.00 in 0.07 in - ()
Sea Level Pressure  
Sea Level Pressure 30.14 in    
Wind  
Wind Speed 12 mph ()    
Max Wind Speed 23 mph    
Max Gust Speed 34 mph    
Visibility 6.2 miles    
Events Rain    
Averages and records for this station are not official NWS values.
T = Trace of Precipitation, MM = Missing Value Source: Averaged Metar Reports

Daily Weather History Graph

Daily Weather History Graph

Search for Another Location

Airport or City:

Trip Planner

Search our weather history database for the weather conditions in past years. The results will help you decide how hot, cold, wet, or windy it might be!

Date:

Astronomy

Dec. 31, 2014 Rise Set
Actual Time 8:44 AM GMT 3:48 PM GMT
Civil Twilight 7:57 AM GMT 4:35 PM GMT
Nautical Twilight 7:08 AM GMT 5:24 PM GMT
Astronomical Twilight 6:23 AM GMT 6:09 PM GMT
Moon 1:00 PM GMT (12/31) 3:21 AM GMT (12/31)
Length of Visible Light 8h 37m
Length of Day
7h 03m
Waxing Gibbous, 78% of the Moon is Illuminated
Dec 31
Waxing Gibbous
Jan 5
Full
Jan 13
Last Quarter
Jan 20
New
Jan 27
First Quarter

Hourly Weather History & Observations

Time (GMT) Temp. Windchill Dew Point Humidity Pressure Visibility Wind Dir Wind Speed Gust Speed Precip Events Conditions
12:20 AM 39.2 °F 33.6 °F 35.6 °F 87% 30.30 in - WSW 8.1 mph - N/A   Clear
12:50 AM 41.0 °F 36.4 °F 37.4 °F 87% 30.30 in - WSW 6.9 mph - N/A   Clear
1:20 AM 41.0 °F 37.1 °F 37.4 °F 87% 30.30 in - West 5.8 mph - N/A   Clear
1:50 AM 42.8 °F 39.3 °F 37.4 °F 81% 30.27 in - West 5.8 mph - N/A   Clear
2:20 AM 42.8 °F 38.6 °F 37.4 °F 81% 30.27 in - West 6.9 mph - N/A   Clear
2:50 AM 41.0 °F 35.8 °F 37.4 °F 87% 30.27 in 6.2 mi WSW 8.1 mph - N/A   Unknown
3:20 AM 41.0 °F 38.0 °F 37.4 °F 87% 30.27 in - WSW 4.6 mph - N/A   Clear
3:50 AM 42.8 °F 37.5 °F 39.2 °F 87% 30.24 in - WSW 9.2 mph - N/A   Clear
4:20 AM 44.6 °F 40.2 °F 39.2 °F 81% 30.24 in - WSW 8.1 mph - N/A   Clear
4:50 AM 44.6 °F 38.4 °F 41.0 °F 87% 30.21 in - SW 12.7 mph - N/A   Clear
5:20 AM 44.6 °F 40.7 °F 39.2 °F 81% 30.21 in - SW 6.9 mph - N/A   Clear
5:50 AM 46.4 °F 42.9 °F 39.2 °F 76% 30.21 in - WSW 6.9 mph - N/A   Clear
6:20 AM 44.6 °F 40.2 °F 39.2 °F 81% 30.21 in - SW 8.1 mph - N/A   Clear
6:50 AM 46.4 °F 41.1 °F 39.2 °F 76% 30.21 in - SW 11.5 mph - N/A   Clear
7:20 AM 46.4 °F 39.8 °F 39.2 °F 76% 30.18 in - SW 16.1 mph - N/A   Clear
7:50 AM 46.4 °F 39.8 °F 39.2 °F 76% 30.18 in - WSW 16.1 mph - N/A   Clear
8:20 AM 46.4 °F 40.7 °F 39.2 °F 76% 30.18 in - SW 12.7 mph - N/A   Clear
8:50 AM 46.4 °F 40.1 °F 39.2 °F 76% 30.18 in - SW 15.0 mph - N/A   Clear
9:20 AM 46.4 °F 39.2 °F 41.0 °F 81% 30.18 in - SW 18.4 mph - N/A   Clear
9:50 AM 48.2 °F - 41.0 °F 76% 30.18 in - SW 18.4 mph - N/A   Clear
10:20 AM 48.2 °F - 41.0 °F 76% 30.18 in - SW 18.4 mph - N/A   Clear
10:50 AM 48.2 °F - 41.0 °F 76% 30.15 in 6.2 mi SSW 21.9 mph - N/A   Partly Cloudy
11:20 AM 48.2 °F - 42.8 °F 82% 30.15 in 6.2 mi SSW 15.0 mph - N/A Rain Light Rain
11:50 AM 48.2 °F - 42.8 °F 82% 30.15 in 6.2 mi SW 18.4 mph 29.9 mph N/A   Partly Cloudy
12:20 PM 50.0 °F - 42.8 °F 76% 30.12 in 6.2 mi SW 23.0 mph - N/A   Mostly Cloudy
12:50 PM 50.0 °F - 42.8 °F 76% 30.12 in 6.2 mi SW 21.9 mph 34.5 mph N/A   Scattered Clouds
1:20 PM 50.0 °F - 44.6 °F 82% 30.09 in 6.2 mi SW 19.6 mph - N/A Rain Light Rain
1:50 PM 50.0 °F - 44.6 °F 82% 30.09 in 6.2 mi SW 21.9 mph 33.4 mph N/A Rain Light Rain
2:20 PM 50.0 °F - 44.6 °F 82% 30.09 in 6.2 mi SW 19.6 mph - N/A Rain Light Rain
2:50 PM 48.2 °F - 44.6 °F 87% 30.09 in 6.2 mi SW 17.3 mph - N/A   Scattered Clouds
3:20 PM 48.2 °F - 44.6 °F 87% 30.09 in 6.2 mi SW 17.3 mph - N/A   Mostly Cloudy
3:50 PM 48.2 °F - 44.6 °F 87% 30.09 in 6.2 mi SW 15.0 mph - N/A   Mostly Cloudy
4:20 PM 50.0 °F - 44.6 °F 82% 30.09 in 6.2 mi SW 19.6 mph - N/A   Scattered Clouds
4:50 PM 50.0 °F - 44.6 °F 82% 30.06 in 6.2 mi SSW 19.6 mph - N/A   Scattered Clouds
5:20 PM 50.0 °F - 46.4 °F 87% 30.09 in 6.2 mi SSW 12.7 mph - N/A   Mostly Cloudy
5:50 PM 50.0 °F - 46.4 °F 87% 30.06 in 6.2 mi SW 12.7 mph - N/A Rain Light Rain
6:20 PM 50.0 °F - 46.4 °F 87% 30.06 in 6.2 mi SSW 15.0 mph - N/A Rain Light Rain
6:50 PM 50.0 °F - 46.4 °F 87% 30.04 in 6.2 mi SSW 18.4 mph - N/A   Scattered Clouds
7:20 PM 50.0 °F - 46.4 °F 87% 30.04 in 6.2 mi SSW 20.7 mph 32.2 mph N/A   Scattered Clouds
7:50 PM 51.8 °F - 46.4 °F 82% 30.01 in 6.2 mi SSW 21.9 mph - N/A   Scattered Clouds
8:20 PM 51.8 °F - 46.4 °F 82% 30.01 in 6.2 mi SW 19.6 mph - N/A   Unknown
8:50 PM 51.8 °F - 46.4 °F 82% 30.01 in 6.2 mi SW 19.6 mph - N/A   Partly Cloudy
9:20 PM 51.8 °F - 46.4 °F 82% 30.01 in 6.2 mi SW 16.1 mph - N/A   Partly Cloudy
9:50 PM 51.8 °F - 44.6 °F 76% 30.01 in 6.2 mi WSW 19.6 mph 31.1 mph N/A   Partly Cloudy
10:20 PM 50.0 °F - 42.8 °F 76% 30.01 in - SW 16.1 mph - N/A   Clear
10:50 PM 50.0 °F - 42.8 °F 76% 30.01 in 6.2 mi WSW 18.4 mph - N/A   Partly Cloudy
11:20 PM 50.0 °F - 42.8 °F 76% 30.01 in 6.2 mi WSW 15.0 mph - N/A   Scattered Clouds
11:50 PM 48.2 °F - 41.0 °F 76% 30.04 in - WSW 17.3 mph - N/A   Clear